Location: Arpaise
(41.0333°N, 14.7333°E)
Time: 16:11:35
(UTC+00:00)

ATLAS 5 CENTAUR R/B - Pass Details

Date: 05 July 2020
Orbit: 534 x 1124 km, 63.4° (Epoch: 06 August)

Event Time Altitude Azimuth Distance (km) Brightness Sun altitude
Rises 19:20:15 0° 200° (SSW) 2,669 4.6 -7.6°
Reaches altitude 10° 19:22:23 10° 195° (SSW) 1,799 3.7 -7.9°
Maximum altitude 19:26:15 50° 119° (ESE) 728 1.6 -8.5°
Drops below altitude 10° 19:30:30 10° 44° (NE) 1,983 4.1 -9.1°
Sets 19:32:58 0° 39° (NE) 2,976 5.1 -9.4°
